Location: Mainz-Finthen
(49.9906°N, 8.1713°E)
Time: 15:30:33
(UTC+00:00)

BEESAT - Pass Details

Date: 05 December 2021
Orbit: 699 x 708 km, 98.6° (Epoch: 26 January)

Event Time Altitude Azimuth Distance (km) Brightness Sun altitude
Rises 05:32:44 0° 145° (SE) 3,085 ? -14.7°
Reaches altitude 10° 05:35:03 10° 139° (SE) 2,173 ? -14.3°
Maximum altitude 05:39:35 46° 67° (ENE) 952 ? -13.6°
Drops below altitude 10° 05:44:09 10° 356° (N) 2,193 ? -12.9°
Sets 05:46:29 0° 350° (N) 3,117 ? -12.6°
